DateTimeUTC,F1_A11,F1_S11,BsB_S11,BsG_S11,BsR_S11,BbsB_S11,BbsG_S11,BbsR_S11,BaB_A11,BaG_A11,BaR_A11,Tu_S11,T_S11,Uu_S11,U_S11,P_S11,T1_A11
2021-08-25T04:00:00Z,00000200,20000000,,,,,,,0000.12,-000.42,-000.23,19.0,25.7,11.8,07.8,0677.7,31.1
2021-08-25T04:01:00Z,00000200,20000000,,,,,,,0000.33,0000.31,0000.48,19.0,25.7,11.7,07.8,0677.7,31.0
2021-08-25T04:02:00Z,00000200,20000000,,,,,,,-000.20,0000.22,-000.09,19.0,25.7,11.7,07.8,0677.7,31.0
2021-08-25T04:03:00Z,00000200,60000000,,,,,,,0000.06,0000.13,0000.11,19.0,25.7,11.7,07.8,0677.7,31.0
2021-08-25T04:04:00Z,00000200,40000000,0001.44,0001.01,0000.52,0000.03,0000.12,-000.06,0000.20,0000.29,-000.27,19.3,25.6,11.5,07.8,0678.6,31.0
2021-08-25T04:05:00Z,00000200,00000000,0001.69,0001.04,0000.66,0000.44,-000.19,0000.02,0000.03,0000.16,0000.67,19.3,25.6,11.4,07.9,0678.7,31.0
2021-08-25T04:06:00Z,00000200,00000000,0001.68,0001.10,0000.66,0000.82,0000.15,0000.18,0000.36,-000.21,-000.00,19.3,25.6,11.4,07.8,0678.7,31.0
2021-08-25T04:07:00Z,00000200,00000000,0000.69,0001.23,0001.02,0000.70,0000.36,0000.02,0000.33,0000.71,0000.01,19.3,25.6,11.5,07.9,0678.7,31.0
2021-08-25T04:08:00Z,00000200,00000000,0001.28,0001.33,0000.65,0000.25,0000.24,0000.03,0000.19,-000.04,0000.62,19.3,25.6,11.4,07.8,0678.7,31.0
2021-08-25T04:09:00Z,00000200,00000000,0001.98,0001.20,0000.50,0000.37,0000.38,0000.22,0000.24,0000.65,0000.14,19.3,25.6,11.4,07.8,0678.7,31.0
2021-08-25T04:10:00Z,00000200,00000000,0001.51,0001.28,0001.11,-000.16,0000.25,0000.36,0000.31,0000.26,-000.13,19.3,25.6,11.4,07.8,0678.7,31.0
2021-08-25T04:11:00Z,00000200,00000000,0001.51,0001.19,0000.77,0000.34,0000.19,-000.11,0000.50,-000.01,0000.54,19.3,25.6,11.4,07.8,0678.7,31.0
2021-08-25T04:12:00Z,00000200,00000000,0001.71,0001.26,0000.80,-000.08,0000.28,-000.09,0000.32,0000.55,0000.32,19.3,25.6,11.4,07.8,0678.6,31.0
2021-08-25T04:13:00Z,00000200,00000000,0001.28,0001.28,0000.79,0000.43,0000.40,0000.10,0000.23,-000.22,-000.03,19.3,25.6,11.4,07.8,0678.6,31.1
2021-08-25T04:14:00Z,00000200,00000000,0001.67,0001.34,0000.78,0000.92,0000.02,0000.03,0000.04,0000.49,0000.14,19.3,25.5,11.5,07.9,0678.6,31.0
2021-08-25T04:15:00Z,00000200,00000000,0001.57,0001.27,0000.64,0000.27,0000.21,0000.26,0000.24,0000.03,0000.43,19.3,25.5,11.5,07.8,0678.6,31.1
2021-08-25T04:16:00Z,00000200,00000000,0001.26,0001.44,0000.77,0000.36,0000.25,-000.04,0000.57,0000.63,0000.64,19.3,25.5,11.4,07.8,0678.6,31.0
2021-08-25T04:17:00Z,00000200,00000000,0001.52,0001.31,0000.44,-000.07,0000.33,0000.24,0000.46,0000.47,0000.07,19.3,25.6,11.5,07.9,0678.5,31.0
2021-08-25T04:18:00Z,00000200,00000000,0001.73,0001.18,0000.57,0000.43,0000.16,0000.23,0000.26,0000.04,0000.33,19.3,25.5,11.5,07.9,0678.5,31.0
2021-08-25T04:19:00Z,00000200,00000000,0001.25,0001.33,0000.91,0000.78,0000.11,0000.45,0000.35,0000.35,0000.05,19.3,25.5,11.5,07.9,0678.5,31.0
2021-08-25T04:20:00Z,00000200,00000000,0001.98,0001.20,0000.69,0000.40,-000.27,0000.16,0000.18,0000.07,0000.09,19.3,25.5,11.5,07.9,0678.5,31.0
2021-08-25T04:21:00Z,00000200,00000000,0001.20,0001.34,0000.96,0000.35,0000.24,0000.18,0000.44,0000.47,0000.23,19.3,25.5,11.5,07.9,0678.5,31.0
2021-08-25T04:22:00Z,00000200,00000000,0001.60,0001.34,0001.16,0000.68,0000.21,0000.14,0000.27,0000.26,0000.44,19.3,25.5,11.6,07.9,0678.5,31.0
2021-08-25T04:23:00Z,00000200,00000000,0000.81,0001.35,0000.87,0000.99,0000.25,0000.10,0000.28,0000.42,0000.25,19.3,25.5,11.5,07.8,0678.5,31.0
2021-08-25T04:24:00Z,00000200,00000000,0001.90,0001.28,0000.59,0000.31,0000.33,0000.12,0000.37,0000.35,0000.18,19.3,25.5,11.5,07.9,0678.5,31.0
2021-08-25T04:25:00Z,00000200,00000000,0001.85,0000.98,0001.06,0000.24,0000.24,0000.27,0000.27,0000.02,0000.20,19.3,25.5,11.5,07.9,0678.5,31.0
2021-08-25T04:26:00Z,00000200,00000000,0001.16,0001.55,0000.88,0000.62,0000.06,0000.26,0000.28,0000.56,0000.17,19.3,25.5,11.5,07.9,0678.5,31.0
2021-08-25T04:27:00Z,00000200,00000000,0001.24,0001.87,0000.73,-000.06,0000.35,0000.04,0000.25,-000.09,0000.36,19.3,25.5,11.4,07.8,0678.5,31.0
2021-08-25T04:28:00Z,00000200,00000000,0001.02,0001.17,0000.93,0000.43,0000.15,0000.12,0000.09,0000.50,0000.07,19.2,25.5,11.3,07.8,0678.5,31.0
2021-08-25T04:29:00Z,00000200,00000000,0001.64,0001.32,0000.89,-000.05,0000.05,0000.12,0000.42,0000.02,0000.40,19.3,25.5,11.4,07.8,0678.4,31.0
2021-08-25T04:30:00Z,00000200,00000000,0001.45,0001.38,0000.79,0000.08,0000.21,0000.02,0000.32,0000.60,0000.06,19.2,25.5,11.4,07.8,0678.5,31.0
2021-08-25T04:31:00Z,00000200,00000000,0002.50,0001.03,0000.87,0000.68,0000.33,0000.11,0000.37,0000.21,0000.28,19.2,25.5,11.4,07.8,0678.4,31.0
2021-08-25T04:32:00Z,00000200,00000000,0001.99,0001.59,0000.88,0000.15,0000.04,0000.05,0000.35,0000.57,0000.52,19.2,25.5,11.3,07.7,0678.4,31.0
2021-08-25T04:33:00Z,00000200,00000000,0001.81,0001.54,0001.27,0000.45,0000.16,0000.52,0000.49,0000.09,-000.08,19.2,25.5,11.4,07.8,0678.4,31.0
2021-08-25T04:34:00Z,00000200,00000000,0001.96,0001.36,0000.97,0000.73,0000.15,0000.29,0000.11,0000.16,0000.39,19.2,25.5,11.4,07.8,0678.4,31.0
2021-08-25T04:35:00Z,00000200,00000000,0001.02,0001.42,0001.02,-000.04,-000.05,0000.36,0000.26,0000.18,0000.30,19.2,25.5,11.4,07.8,0678.4,31.0
2021-08-25T04:36:00Z,00000200,00000000,0002.09,0001.49,0000.82,-000.09,0000.40,0000.09,0000.65,0000.55,0000.42,19.2,25.5,11.4,07.8,0678.4,31.0
2021-08-25T04:37:00Z,00000200,00000000,0001.67,0001.32,0001.04,0000.16,0000.51,0000.40,0000.01,0000.36,0000.10,19.2,25.5,11.3,07.7,0678.4,31.0
2021-08-25T04:38:00Z,00000200,00000000,0002.04,0001.68,0001.50,0000.19,0000.49,0000.15,0000.71,0000.18,0000.11,19.2,25.5,11.3,07.7,0678.4,31.0
2021-08-25T04:39:00Z,00000200,00000000,0002.69,0001.72,0001.13,0000.19,0000.11,0000.42,0000.48,0000.43,0000.53,19.2,25.5,11.3,07.7,0678.4,31.0
2021-08-25T04:40:00Z,00000200,00000000,0001.63,0001.76,0001.10,0000.48,0000.25,-000.03,-000.10,0000.27,0000.26,19.2,25.5,11.3,07.7,0678.4,31.0
2021-08-25T04:41:00Z,00000200,00000000,0002.00,0001.79,0001.06,0000.93,0000.19,0000.21,0001.06,0000.66,0000.46,19.2,25.5,11.3,07.7,0678.4,31.0
2021-08-25T04:42:00Z,00000200,00000000,0001.61,0001.49,0001.16,-000.02,0000.19,0000.19,-000.19,0000.45,0000.30,19.2,25.5,11.3,07.7,0678.4,31.0
2021-08-25T04:43:00Z,00000200,00000000,0002.20,0001.89,0001.31,0000.68,0000.24,0000.27,0000.73,0000.32,0000.57,19.2,25.5,11.3,07.7,0678.4,31.0
2021-08-25T04:44:00Z,00000200,00000000,0002.24,0001.93,0001.02,0001.20,0000.32,0000.23,0000.68,0000.51,0000.20,19.2,25.5,11.5,07.9,0678.3,31.0
2021-08-25T04:45:00Z,00000200,00000000,0001.87,0001.47,0001.19,0000.58,0000.41,0000.09,0000.34,0000.03,0000.28,19.2,25.5,11.3,07.7,0678.4,31.0
2021-08-25T04:46:00Z,00000200,00000000,0003.10,0001.77,0001.05,0000.22,0000.42,0000.01,0000.15,0000.35,0000.15,19.2,25.5,11.3,07.7,0678.4,31.0
2021-08-25T04:47:00Z,00000200,00000000,0002.52,0001.77,0001.13,0000.78,0000.19,0000.05,0000.60,0000.55,0000.28,19.2,25.5,11.3,07.7,0678.3,31.0
2021-08-25T04:48:00Z,00000200,00000000,0002.44,0002.05,0001.46,0000.50,0000.52,0000.31,0000.48,0000.57,0000.69,19.2,25.5,11.3,07.7,0678.3,31.0
2021-08-25T04:49:00Z,00000200,00000000,0002.57,0001.88,0000.56,0000.54,0000.39,-000.27,0000.18,0000.40,0000.01,19.2,25.5,11.3,07.7,0678.3,31.0
2021-08-25T04:50:00Z,00000200,00000000,0002.54,0001.77,0001.23,0000.99,0000.50,0000.10,0000.63,0000.35,0000.67,19.2,25.4,11.3,07.7,0678.2,31.0
2021-08-25T04:51:00Z,00000200,00000000,0002.38,0001.95,0001.23,0000.44,0000.39,0000.17,0000.09,0000.31,0000.48,19.2,25.4,11.3,07.7,0678.3,31.0
2021-08-25T04:52:00Z,00000200,00000000,0002.20,0001.74,0001.13,0000.50,0000.16,0000.21,0000.46,0000.37,0000.04,19.2,25.4,11.2,07.6,0678.2,31.0
2021-08-25T04:53:00Z,00000200,00000000,0003.05,0002.22,0001.19,-000.16,0000.42,0000.15,0000.36,0000.45,0000.08,19.2,25.4,11.3,07.7,0678.2,31.0
2021-08-25T04:54:00Z,00000200,00000000,0001.95,0001.84,0001.15,0000.84,0000.03,-000.02,0000.56,0000.29,0000.21,19.2,25.5,11.2,07.6,0678.3,31.0
2021-08-25T04:55:00Z,00000200,00000000,0002.03,0001.96,0001.12,0000.69,-000.04,0000.18,0000.48,0000.68,0000.64,19.2,25.5,11.2,07.6,0678.2,31.0
2021-08-25T04:56:00Z,00000200,00000000,0002.78,0001.67,0001.10,0000.40,0000.26,0000.49,0000.50,0000.15,0000.28,19.2,25.4,11.2,07.6,0678.3,31.0
2021-08-25T04:57:00Z,00000200,40000000,,,,,,,0000.13,0000.26,0000.12,19.2,25.5,11.6,07.9,0678.2,31.0
2021-08-25T04:58:00Z,00000200,60000000,,,,,,,-000.27,0000.14,-000.19,19.0,25.6,11.2,07.5,0677.3,31.0
2021-08-25T04:59:00Z,00000200,20000000,,,,,,,0000.21,-000.16,-000.10,19.0,25.7,11.1,07.4,0677.3,31.0
